When you browse on this site, cookies collect data to enhance your experience and personalize the content and advertising you see.
Visit our Privacy Policy to learn more. By continuing to use the site, you agree to this use of cookies and data.
  • In Austria
  • List of Countries
  • For 7 days
  • Water Temperature
  • Weather Map
  • News
  • Weather Widgets
  • user-avatar
    Login

    Hourly Weather El Arenal

    Today, 18 August, Sunday

    Time Temperature Precipitation Wind Pressure Humidity
    00:00 +13°C° 0 mm 0 mps 588 mmHg 91%
    01:00 +13°C° 0 mm 0 mps 588 mmHg 90%
    02:00 +13°C° 0 mm 0 mps 588 mmHg 90%
    03:00 +12°C° 0 mm 0 mps 588 mmHg 90%
    04:00 +12°C° 0 mm 0 mps 588 mmHg 89%
    05:00 +12°C° 0 mm 0 mps 587 mmHg 89%
    06:00 +14°C° 0 mm 0 mps 589 mmHg 82%
    07:00 +16°C° 0 mm 0 mps 590 mmHg 75%
    08:00 +18°C° 0 mm 0 mps 591 mmHg 67%
    09:00 +21°C° 0 mm 1 mps 592 mmHg 59%
    10:00 +23°C° 0 mm 2 mps 592 mmHg 51%
    11:00 +25°C° 0 mm 2 mps 593 mmHg 43%
    12:00 +25°C° 0 mm 3 mps 592 mmHg 44%
    13:00 +26°C° 0 mm 4 mps 592 mmHg 44%
    14:00 +26°C° 0 mm 5 mps 591 mmHg 45%
    15:00 +25°C° 0.1 mm 5 mps 591 mmHg 54%
    16:00 +22°C° 0.1 mm 4 mps 590 mmHg 63%
    17:00 +21°C° 0.1 mm 4 mps 589 mmHg 72%
    18:00 +19°C° 0.3 mm 3 mps 589 mmHg 79%
    19:00 +18°C° 0.3 mm 3 mps 589 mmHg 86%
    20:00 +16°C° 0.3 mm 2 mps 589 mmHg 93%
    21:00 +16°C° 0 mm 2 mps 589 mmHg 94%
    22:00 +15°C° 0 mm 1 mps 589 mmHg 95%
    23:00 +15°C° 0 mm 1 mps 589 mmHg 96%

    Tomorrow, 19 August, Monday

    Time Temperature Precipitation Wind Pressure Humidity
    00:00 +15°C° 0 mm 1 mps 589 mmHg 96%
    01:00 +14°C° 0 mm 1 mps 588 mmHg 96%
    02:00 +14°C° 0 mm 1 mps 588 mmHg 96%
    03:00 +14°C° 0 mm 1 mps 588 mmHg 95%
    04:00 +14°C° 0 mm 1 mps 588 mmHg 95%
    05:00 +14°C° 0 mm 1 mps 588 mmHg 95%
    06:00 +15°C° 0 mm 1 mps 589 mmHg 89%
    07:00 +16°C° 0 mm 1 mps 590 mmHg 83%
    08:00 +17°C° 0 mm 2 mps 591 mmHg 78%
    09:00 +19°C° 0 mm 2 mps 591 mmHg 70%
    10:00 +21°C° 0 mm 3 mps 592 mmHg 63%
    11:00 +22°C° 0 mm 4 mps 592 mmHg 55%
    12:00 +22°C° 0.1 mm 5 mps 592 mmHg 56%
    13:00 +22°C° 0.1 mm 6 mps 591 mmHg 56%
    14:00 +22°C° 0.1 mm 7 mps 591 mmHg 57%
    15:00 +21°C° 0 mm 6 mps 590 mmHg 62%
    16:00 +20°C° 0 mm 6 mps 590 mmHg 67%
    17:00 +19°C° 0 mm 5 mps 590 mmHg 71%
    18:00 +17°C° 0 mm 4 mps 590 mmHg 79%
    19:00 +16°C° 0 mm 3 mps 589 mmHg 86%
    20:00 +15°C° 0 mm 2 mps 589 mmHg 93%
    21:00 +14°C° 0 mm 2 mps 589 mmHg 93%
    22:00 +14°C° 0 mm 2 mps 590 mmHg 93%
    23:00 +14°C° 0 mm 2 mps 590 mmHg 93%

    Day after tomorrow, 20 August, Tuesday

    Time Temperature Precipitation Wind Pressure Humidity
    00:00 +13°C° 0 mm 1 mps 589 mmHg 92%
    01:00 +13°C° 0 mm 1 mps 589 mmHg 91%
    02:00 +12°C° 0 mm 1 mps 588 mmHg 91%
    03:00 +12°C° 0 mm 1 mps 588 mmHg 91%
    04:00 +11°C° 0 mm 1 mps 588 mmHg 91%
    05:00 +11°C° 0 mm 1 mps 588 mmHg 92%
    06:00 +13°C° 0 mm 1 mps 589 mmHg 84%
    07:00 +14°C° 0 mm 1 mps 590 mmHg 77%
    08:00 +16°C° 0 mm 1 mps 591 mmHg 69%
    09:00 +18°C° 0 mm 2 mps 591 mmHg 64%
    10:00 +19°C° 0 mm 4 mps 592 mmHg 59%
    11:00 +21°C° 0 mm 5 mps 592 mmHg 55%
    12:00 +21°C° 0.1 mm 5 mps 592 mmHg 57%
    13:00 +21°C° 0.1 mm 6 mps 591 mmHg 59%
    14:00 +21°C° 0.1 mm 6 mps 591 mmHg 62%
    15:00 +20°C° 0.1 mm 6 mps 591 mmHg 66%
    16:00 +19°C° 0.1 mm 5 mps 590 mmHg 70%
    17:00 +17°C° 0.1 mm 5 mps 590 mmHg 74%
    18:00 +17°C° 0 mm 4 mps 590 mmHg 81%
    19:00 +16°C° 0 mm 3 mps 590 mmHg 87%
    20:00 +14°C° 0 mm 2 mps 590 mmHg 93%
    21:00 +14°C° 0.1 mm 2 mps 590 mmHg 93%
    22:00 +14°C° 0.1 mm 1 mps 590 mmHg 94%
    23:00 +14°C° 0.1 mm 1 mps 590 mmHg 95%

    21 August, Wednesday

    Time Temperature Precipitation Wind Pressure Humidity
    00:00 +13°C° 0 mm 1 mps 590 mmHg 95%
    01:00 +13°C° 0 mm 1 mps 589 mmHg 95%
    02:00 +13°C° 0 mm 1 mps 589 mmHg 96%
    03:00 +13°C° 0 mm 1 mps 589 mmHg 95%
    04:00 +13°C° 0 mm 1 mps 589 mmHg 94%
    05:00 +13°C° 0 mm 1 mps 589 mmHg 94%
    06:00 +14°C° 0 mm 1 mps 590 mmHg 88%
    07:00 +15°C° 0 mm 1 mps 590 mmHg 82%
    08:00 +16°C° 0 mm 1 mps 591 mmHg 77%
    09:00 +17°C° 0 mm 2 mps 591 mmHg 70%
    10:00 +19°C° 0 mm 2 mps 592 mmHg 63%
    11:00 +20°C° 0 mm 3 mps 592 mmHg 56%
    12:00 +21°C° 0.1 mm 4 mps 592 mmHg 58%
    13:00 +21°C° 0.1 mm 4 mps 591 mmHg 60%
    14:00 +21°C° 0.1 mm 5 mps 591 mmHg 62%
    15:00 +20°C° 0.2 mm 5 mps 590 mmHg 66%
    16:00 +19°C° 0.2 mm 5 mps 590 mmHg 70%
    17:00 +18°C° 0.2 mm 4 mps 590 mmHg 74%
    18:00 +17°C° 0 mm 3 mps 590 mmHg 80%
    19:00 +14°C° 0 mm 3 mps 590 mmHg 86%
    20:00 +14°C° 0 mm 2 mps 589 mmHg 91%
    21:00 +14°C° 0 mm 1 mps 590 mmHg 92%
    22:00 +14°C° 0 mm 1 mps 590 mmHg 92%
    23:00 +14°C° 0 mm 1 mps 590 mmHg 93%

    22 August, Thursday

    Time Temperature Precipitation Wind Pressure Humidity
    00:00 +13°C° 0 mm 0 mps 589 mmHg 92%
    01:00 +13°C° 0 mm 0 mps 589 mmHg 91%
    02:00 +13°C° 0 mm 0 mps 589 mmHg 91%
    03:00 +12°C° 0 mm 0 mps 589 mmHg 91%
    04:00 +12°C° 0 mm 0 mps 589 mmHg 92%
    05:00 +11°C° 0 mm 0 mps 588 mmHg 93%
    06:00 +13°C° 0 mm 0 mps 590 mmHg 86%
    07:00 +15°C° 0 mm 0 mps 591 mmHg 79%
    08:00 +17°C° 0 mm 0 mps 592 mmHg 71%
    09:00 +20°C° 0.3 mm 1 mps 592 mmHg 67%
    10:00 +22°C° 0.3 mm 1 mps 592 mmHg 62%
    11:00 +23°C° 0.3 mm 1 mps 593 mmHg 58%
    12:00 +23°C° 1.1 mm 1 mps 592 mmHg 58%
    13:00 +23°C° 1.1 mm 2 mps 592 mmHg 59%
    14:00 +23°C° 1.1 mm 2 mps 591 mmHg 59%
    15:00 +21°C° 1.6 mm 2 mps 591 mmHg 66%
    16:00 +20°C° 1.6 mm 2 mps 590 mmHg 73%
    17:00 +19°C° 1.6 mm 2 mps 590 mmHg 81%
    18:00 +18°C° 4.6 mm 2 mps 590 mmHg 85%
    19:00 +18°C° 4.6 mm 1 mps 590 mmHg 89%
    20:00 +16°C° 4.6 mm 1 mps 590 mmHg 94%
    21:00 +15°C° 3.7 mm 1 mps 590 mmHg 93%
    22:00 +15°C° 3.7 mm 1 mps 590 mmHg 93%
    23:00 +15°C° 3.7 mm 1 mps 590 mmHg 93%

    23 August, Friday

    Time Temperature Precipitation Wind Pressure Humidity
    00:00 +15°C° 1.3 mm 1 mps 590 mmHg 93%
    01:00 +15°C° 1.3 mm 1 mps 590 mmHg 92%
    02:00 +15°C° 1.3 mm 1 mps 590 mmHg 92%
    03:00 +15°C° 0.3 mm 1 mps 590 mmHg 91%
    04:00 +15°C° 0.3 mm 1 mps 590 mmHg 91%
    05:00 +15°C° 0.3 mm 1 mps 590 mmHg 90%
    06:00 +16°C° 0 mm 1 mps 591 mmHg 85%
    07:00 +18°C° 0 mm 1 mps 591 mmHg 81%
    08:00 +19°C° 0 mm 1 mps 592 mmHg 76%
    09:00 +21°C° 0.3 mm 1 mps 592 mmHg 70%
    10:00 +22°C° 0.3 mm 1 mps 592 mmHg 64%
    11:00 +24°C° 0.3 mm 1 mps 593 mmHg 58%
    12:00 +23°C° 1.9 mm 2 mps 592 mmHg 60%
    13:00 +23°C° 1.9 mm 2 mps 591 mmHg 63%
    14:00 +23°C° 1.9 mm 2 mps 591 mmHg 65%
    15:00 +20°C° 1.2 mm 2 mps 590 mmHg 70%
    16:00 +19°C° 1.2 mm 2 mps 590 mmHg 75%
    17:00 +18°C° 1.2 mm 2 mps 589 mmHg 80%
    18:00 +17°C° 1 mm 2 mps 589 mmHg 82%
    19:00 +17°C° 1 mm 2 mps 590 mmHg 85%
    20:00 +16°C° 1 mm 2 mps 590 mmHg 87%
    21:00 +16°C° 0.1 mm 1 mps 590 mmHg 87%
    22:00 +16°C° 0.1 mm 1 mps 591 mmHg 87%
    23:00 +16°C° 0.1 mm 1 mps 591 mmHg 87%
    Show more